Location: Killam
(52.7910°N, 111.8608°W)
Time: 14:42:57
(UTC+00:00)

Injun/Solrad 3 - Pass Details

Date: 17 February 2026
Orbit: 872 x 984 km, 66.8° (Epoch: 7 March)

Event Time Altitude Azimuth Distance (km) Brightness Sun altitude
Rises 02:30:53 0° 319° (NW) 3,548 11.6 -17.0°
Reaches altitude 10° 02:33:25 10° 323° (NW) 2,620 10.8 -17.4°
Maximum altitude 02:39:28 63° 44° (NE) 1,046 7.9 -18.3°
Enters shadow 02:42:41 29° 116° (ESE) 1,663 8.7 -18.8°
